Columbus AFB, MS

4:52 PM CDT on April 25, 2017 (GMT -0500)
Columbus Air Force Base

Weather History for KCBM - January, 2013

Change the Weather History Date:

Tuesday, January 29, 2013

  Actual Average Record
Temperature  
Mean Temperature 65 °F -  
Max Temperature 76 °F 53 °F 78 °F (2002)
Min Temperature 54 °F 35 °F 5 °F (2014)
Growing Degree Days 15 (Base 50)    
Moisture  
Dew Point 61 °F    
Average Humidity 87    
Maximum Humidity 100    
Minimum Humidity 60    
Precipitation  
Precipitation 0.00 in - - ()
Sea Level Pressure  
Sea Level Pressure 29.98 in    
Wind  
Wind Speed 10 mph (South)    
Max Wind Speed 20 mph    
Max Gust Speed 30 mph    
Visibility 9 miles    
Events Rain    
Averages and records for this station are not official NWS values.
T = Trace of Precipitation, MM = Missing Value Source: NWS Daily Summary

Daily Weather History Graph

Daily Weather History Graph

Search for Another Location

Airport or City:

Trip Planner

Search our weather history database for the weather conditions in past years. The results will help you decide how hot, cold, wet, or windy it might be!

Date:

Astronomy

Jan. 29, 2013 Rise Set
Actual Time 6:52 AM CST 5:22 PM CST
Civil Twilight 6:25 AM CST 5:48 PM CST
Nautical Twilight 5:55 AM CST 6:18 PM CST
Astronomical Twilight 5:26 AM CST 6:47 PM CST
Moon 8:06 PM CST (1/29) 7:58 AM CST (1/29)
Length of Visible Light 11h 22m
Length of Day
10h 30m
Waning Gibbous, 93% of the Moon is Illuminated
Jan 29
Waning Gibbous
Feb 3
Last Quarter
Feb 10
New
Feb 17
First Quarter
Feb 25
Full

Hourly Weather History & Observations

Time (CST) Temp. Dew Point Humidity Pressure Visibility Wind Dir Wind Speed Gust Speed Precip Events Conditions
12:58 AM 54.9 °F 54.1 °F 97% 30.15 in 10.0 mi SE 6.9 mph - N/A   Clear
1:50 AM 55.4 °F 55.4 °F 100% 30.13 in 8.0 mi SE 4.6 mph - N/A   Mostly Cloudy
1:58 AM 55.4 °F 55.4 °F 100% 30.14 in 8.0 mi SE 2.3 mph - N/A   Mostly Cloudy
2:03 AM 57.2 °F 57.2 °F 100% 30.13 in 9.0 mi South 4.6 mph - N/A   Overcast
2:19 AM 60.8 °F 60.8 °F 100% 30.12 in 10.0 mi South 12.7 mph - N/A   Overcast
2:39 AM 60.8 °F 59.0 °F 94% 30.12 in 10.0 mi South 12.7 mph - N/A   Overcast
2:49 AM 60.8 °F 59.0 °F 94% 30.12 in 10.0 mi South 11.5 mph - N/A   Overcast
2:58 AM 60.3 °F 59.4 °F 97% 30.13 in 9.0 mi South 10.4 mph - N/A   Overcast
3:03 AM 60.8 °F 59.0 °F 94% 30.11 in 8.0 mi South 12.7 mph - N/A   Overcast
3:19 AM 59.0 °F 59.0 °F 100% 30.11 in 3.0 mi South 10.4 mph - N/A   Overcast
3:29 AM 59.0 °F 59.0 °F 100% 30.10 in 3.0 mi South 12.7 mph - N/A   Overcast
3:34 AM 59.0 °F 59.0 °F 100% 30.10 in 3.0 mi South 10.4 mph - N/A   Overcast
3:44 AM 59.0 °F 59.0 °F 100% 30.11 in 3.0 mi South 10.4 mph - N/A   Overcast
3:49 AM 59.0 °F 59.0 °F 100% 30.10 in 4.0 mi South 10.4 mph - N/A   Overcast
3:58 AM 59.7 °F 59.7 °F 100% 30.11 in 4.0 mi South 12.7 mph - N/A   Overcast
4:08 AM 59.0 °F 59.0 °F 100% 30.10 in 5.0 mi South 9.2 mph - N/A   Overcast
4:58 AM 59.7 °F 59.7 °F 100% 30.08 in 7.0 mi SSE 6.9 mph - N/A   Overcast
5:19 AM 59.0 °F 59.0 °F 100% 30.06 in 8.0 mi SSE 9.2 mph - N/A   Overcast
5:24 AM 59.0 °F 59.0 °F 100% 30.06 in 8.0 mi SSE 8.1 mph - N/A   Overcast
5:35 AM 59.0 °F 59.0 °F 100% 30.06 in 7.0 mi South 5.8 mph - N/A   Overcast
5:40 AM 59.0 °F 59.0 °F 100% 30.07 in 8.0 mi South 6.9 mph - N/A   Overcast
5:58 AM 60.4 °F 60.3 °F 99% 30.07 in 10.0 mi SSE 8.1 mph - N/A   Overcast
6:03 AM 60.8 °F 60.8 °F 100% 30.07 in 10.0 mi South 9.2 mph - N/A   Overcast
6:28 AM 60.8 °F 60.8 °F 100% 30.07 in 10.0 mi South 5.8 mph - N/A   Overcast
6:53 AM 62.6 °F 62.6 °F 100% 30.07 in 10.0 mi South 8.1 mph - N/A   Overcast
6:58 AM 62.2 °F 62.2 °F 100% 30.07 in 10.0 mi South 8.1 mph - N/A   Overcast
7:18 AM 62.6 °F 62.6 °F 100% 30.08 in 10.0 mi SSE 8.1 mph - N/A   Overcast
7:58 AM 62.6 °F 62.6 °F 100% 30.08 in 10.0 mi SSE 9.2 mph - N/A   Overcast
8:58 AM 64.9 °F 63.1 °F 94% 30.06 in 10.0 mi South 9.2 mph - N/A   Overcast
9:50 AM 66.2 °F 62.6 °F 88% 30.04 in 10.0 mi South 15.0 mph - N/A   Overcast
9:58 AM 66.6 °F 62.6 °F 87% 30.05 in 10.0 mi South 10.4 mph - N/A   Overcast
10:35 AM 68.0 °F 62.6 °F 83% 30.03 in 10.0 mi South 12.7 mph - N/A   Overcast
10:58 AM 68.7 °F 62.8 °F 81% 30.03 in 10.0 mi SSW 12.7 mph - N/A   Overcast
11:58 AM 68.4 °F 63.1 °F 83% 29.99 in 10.0 mi South 13.8 mph 19.6 mph N/A   Overcast
12:03 PM 68.0 °F 62.6 °F 83% 29.97 in 10.0 mi South 12.7 mph - N/A   Overcast
12:18 PM 69.8 °F 62.6 °F 78% 29.96 in 10.0 mi South 12.7 mph 19.6 mph N/A   Overcast
12:58 PM 71.6 °F 62.6 °F 73% 29.94 in 10.0 mi South 16.1 mph 21.9 mph N/A   Mostly Cloudy
1:24 PM 73.4 °F 62.6 °F 69% 29.90 in 10.0 mi South 16.1 mph 24.2 mph N/A   Scattered Clouds
1:58 PM 74.5 °F 63.1 °F 68% 29.88 in 10.0 mi South 19.6 mph 25.3 mph N/A   Scattered Clouds
2:58 PM 76.1 °F 62.1 °F 62% 29.86 in 10.0 mi South 15.0 mph 24.2 mph N/A   Scattered Clouds
3:38 PM 75.2 °F 60.8 °F 61% 29.85 in 10.0 mi SSW 15.0 mph 18.4 mph N/A   Mostly Cloudy
3:43 PM 75.2 °F 60.8 °F 61% 29.84 in 10.0 mi South 13.8 mph 18.4 mph N/A   Mostly Cloudy
3:58 PM 75.4 °F 60.6 °F 60% 29.85 in 10.0 mi South 10.4 mph - N/A   Mostly Cloudy
4:58 PM 74.5 °F 61.0 °F 63% 29.85 in 10.0 mi South 9.2 mph - N/A   Scattered Clouds
5:58 PM 73.4 °F 61.2 °F 65% 29.83 in 10.0 mi South 15.0 mph - N/A   Scattered Clouds
6:58 PM 71.6 °F 61.5 °F 70% 29.81 in 10.0 mi South 12.7 mph - N/A   Clear
7:58 PM 71.6 °F 62.6 °F 73% 29.80 in 10.0 mi South 15.0 mph 20.7 mph N/A   Clear
8:53 PM 71.6 °F 64.4 °F 78% 29.78 in 10.0 mi South 13.8 mph 26.5 mph N/A Rain Light Rain
8:58 PM 72.3 °F 63.7 °F 74% 29.78 in 10.0 mi South 16.1 mph 24.2 mph 0.00 in Rain Light Rain
9:02 PM 71.6 °F 64.4 °F 78% 29.77 in 10.0 mi South 17.3 mph 24.2 mph N/A   Mostly Cloudy
9:22 PM 71.6 °F 64.4 °F 78% 29.76 in 10.0 mi South 17.3 mph 29.9 mph N/A   Scattered Clouds
9:32 PM 71.6 °F 64.4 °F 78% 29.76 in 10.0 mi South 18.4 mph 26.5 mph N/A   Mostly Cloudy
9:47 PM 71.6 °F 64.4 °F 78% 29.76 in 10.0 mi South 18.4 mph 26.5 mph N/A   Scattered Clouds
9:52 PM 71.6 °F 64.4 °F 78% 29.75 in 10.0 mi South 16.1 mph 25.3 mph N/A   Mostly Cloudy
9:58 PM 71.6 °F 64.4 °F 78% 29.75 in 10.0 mi South 19.6 mph 23.0 mph 0.00 in   Scattered Clouds
10:58 PM 71.1 °F 64.2 °F 79% 29.73 in 10.0 mi South 16.1 mph 27.6 mph N/A   Clear
11:58 PM 71.2 °F 64.2 °F 78% 29.71 in 10.0 mi South 18.4 mph 27.6 mph N/A   Partly Cloudy